Other Surface Observations
Issued by NWS Tucson, AZ

Home | Current Version | Previous Version | Text Only | Print | Product List | Glossary On
Versions: 1 2 3 4 5 6 7 8 9 10 11 12 13 14 15 16 17 18 19 20 21 22 23 24 25 26 27 28 29 30 31 32 33 34 35 36 37 38 39 40 41 42 43 44 45 46 47 48 49 50
000
SXUS55 KTWC 211615
OSOTWC

WEATHER ROUNDUP FOR SOUTHEAST ARIZONA
NATIONAL WEATHER SERVICE TUCSON AZ
915 AM MST THU SEP 21 2017

AZZ504>506-514-211715-
LOCATION       SKY/WX    TMP DP  RH WIND       PRES   REMARKS
TUCSON         SUNNY     82  56  40 CALM      29.93S
DAVIS-MONTHAN  SUNNY     82  55  38 S9        29.92R
CHILDRENS PARK N/A      N/A N/A  47 SE5               PIMA CO DEQ
ALVERNON/22ND  N/A       79 N/A N/A E3                PIMA CO DEQ
CHERRY/GLENN   N/A      N/A N/A N/A N/A               PIMA CO DEQ
TANGERINE      N/A       78 N/A N/A S11               PIMA CO DEQ
CONTL RANCH    N/A       76  55  49 SE6               PIMA CO DEQ
GRANT/1ST      N/A       78  56  47 SE4               PIMA CO DEQ
CRAYCROFT/22ND N/A       78  58  50 N/A               PIMA CO DEQ
GOLFLINKS/KOLB N/A       77  58  52 E3                PIMA CO DEQ
AJO/12TH       N/A       77  59  53 SE5               PIMA CO DEQ
FAIRGROUNDS    N/A       76 N/A N/A NE2               PIMA CO DEQ
SAGUARO        N/A       84  56  39 NW2               *SABINO CYN
SAN CARLOS     N/A       76  38  25 S2                *SAN CARLOS
GREEN VALLEY   N/A       77  59  53 SW7               PIMA CO DEQ
HORSE CAMP CYN N/A       73  52  47 E7G11             *ARAVAIPA CYN
RINCON MTNS    N/A       62  51  66 SW2               *NR MANNING CAMP
$$

AZZ509>511-211715-
LOCATION       SKY/WX    TMP DP  RH WIND       PRES   REMARKS
SAFFORD        SUNNY     81  54  39 VRB3      29.93S
STRAY HORSE    N/A       60  44  56 SW5               *
TRAIL CABIN    N/A       70  48  45 SW4G12            *N OF GRANVILLE
BLACK HILLS    NOT AVBL
DRY LAKE       N/A       63  51  64 S7G12             *NATANES MTNS
NOON CREEK     N/A       76  51  41 S7G16             *PINALENO MTNS
COLUMBINE      N/A       49  48  95 SW6G17            *PINALENO MTNS
GUTHRIE        N/A       65  55  69 SW10G16           *SW OF GUTHRIE
$$

AZZ502-503-513-211715-
LOCATION       SKY/WX    TMP DP  RH WIND       PRES   REMARKS
NOGALES        SUNNY     79  56  45 SE14G20   30.02R
SELLS          N/A       80  57  45 SE10G17           *
SASABE         N/A       77  58  52 S7G10             *ALTAR VLY
HOPKINS        N/A       64  49  59 SE4G13            *SANTA RITA MTNS
CARR CYN       N/A       72  53  52 N4G11             *W OF HEREFORD
$$

AZZ507-508-512-211715-
LOCATION       SKY/WX    TMP DP  RH WIND       PRES   REMARKS
SIERRA VISTA   SUNNY     78  48  35 CALM      30.06R
DOUGLAS        SUNNY     77  60  55 S8        30.04R
EMPIRE MTNS    NOT AVBL
MULESHOE RANCH N/A       73  56  55 S6G11             *PRESERVE
HEADQUARTERS   N/A       73  55  53 SW4G17            *CHIRICAHUA MTNS
$$

.............................NOTES.............................
THIS IS AN AUTOMATED COLLECTIVE WITH MINIMAL QUALITY CONTROL.
PIMA CO DEQ SITES HAVE NONSTANDARD WIND SENSOR HEIGHTS.
PIMA CO DEQ SITES DO NOT REPORT WIND GUSTS.
* INDICATES WIND SENSORS LOCATED AT 20 FEET INSTEAD OF 33 FEET.
..............................KEY..............................
SKY/WX - SKY CONDITION/WEATHER
TMP    - TEMPERATURE IN FAHRENHEIT
DP     - DEWPOINT IN FAHRENHEIT
RH     - RELATIVE HUMIDITY IN PERCENT
WIND   - DIRECTION AND SPEED IN MILES PER HOUR (MPH)
VRB    - VARIABLE WIND DIRECTION
PRES   - MEAN SEA LEVEL PRESSURE IN INCHES OF MERCURY
         F - FALLING PRESSURE   R - RISING PRESSURE
         S - STEADY PRESSURE
VSB    - VISIBILITY IN MILES
HX     - HEAT INDEX IN FAHRENHEIT
WCI    - WIND CHILL INDEX IN FAHRENHEIT
N/A    - NOT AVAILABLE
AFB    - AIR FORCE BASE
         DAVIS-MONTHAN IS DAVIS-MONTHAN AIR FORCE BASE
CYN    - CANYON
MTNS   - MOUNTAINS
NCA    - NATIONAL CONSERVATION AREA
NR     - NEAR
VLY    - VALLEY
CONTL  - CONTINENTAL
PIMA CO DEQ - PIMA COUNTY DEPT OF ENVIRONMENTAL QUALITY



USA.gov is the U.S. government's official web portal to all federal, state and local government web resources and services.